AUA133N LOWW-LSZH

Flight info

Callsign AUA133N
Flight time N/A
Altitude 30000
Route SOVIL DCT SITNI DCT BAGSI DCT MATIG DCT TRAUN DCT KONIN/N0311F120 L856 NEGRA
Aircraft A320/M-SDE3FGHIRWY/LB1

Departure

Time 2026-04-30 07:13
Airport Vienna International Airport (LOWW)

Arrival

Time N/A
Airport Zürich Airport (LSZH)
Time Latitude Longitude Altitude Speed Heading
2026-04-30 06:51 48.11916 16.56714 622 ft 0 kts 206°
2026-04-30 07:02 48.11933 16.56726 638 ft 4 kts 201°
2026-04-30 07:02 48.11959 16.56738 613 ft 4 kts 186°
2026-04-30 07:02 48.11984 16.56735 622 ft 4 kts 141°
2026-04-30 07:03 48.11992 16.56721 613 ft 1 kts 115°
2026-04-30 07:03 48.11992 16.56720 613 ft 0 kts 115°
2026-04-30 07:08 48.11982 16.56751 618 ft 10 kts 116°
2026-04-30 07:08 48.11936 16.56892 612 ft 17 kts 116°
2026-04-30 07:08 48.11888 16.57039 616 ft 15 kts 115°
2026-04-30 07:08 48.11854 16.57162 614 ft 12 kts 95°
2026-04-30 07:09 48.11837 16.57267 622 ft 10 kts 117°
2026-04-30 07:09 48.11785 16.57354 619 ft 13 kts 161°
2026-04-30 07:09 48.11692 16.57394 615 ft 15 kts 165°
2026-04-30 07:09 48.11583 16.57440 619 ft 17 kts 164°
2026-04-30 07:10 48.11462 16.57438 609 ft 18 kts 205°
2026-04-30 07:10 48.11360 16.57364 609 ft 16 kts 206°
2026-04-30 07:10 48.11267 16.57298 618 ft 14 kts 205°
2026-04-30 07:10 48.11192 16.57327 615 ft 12 kts 121°
2026-04-30 07:11 48.11157 16.57431 609 ft 10 kts 116°
2026-04-30 07:11 48.11124 16.57534 614 ft 14 kts 116°
2026-04-30 07:11 48.11063 16.57649 609 ft 13 kts 165°
2026-04-30 07:11 48.10986 16.57602 622 ft 11 kts 214°
2026-04-30 07:12 48.10947 16.57512 621 ft 10 kts 259°
2026-04-30 07:12 48.10951 16.57422 615 ft 7 kts 293°
2026-04-30 07:12 48.10954 16.57414 624 ft 4 kts 297°
2026-04-30 07:12 48.11062 16.57087 620 ft 71 kts 296°
2026-04-30 07:13 48.11373 16.56129 616 ft 131 kts 296°
2026-04-30 07:13 48.11838 16.54696 723 ft 166 kts 298°
2026-04-30 07:13 48.12206 16.53095 1443 ft 169 kts 275°
2026-04-30 07:13 48.11836 16.51394 2088 ft 183 kts 243°
2026-04-30 07:14 48.11182 16.49625 2422 ft 206 kts 243°
2026-04-30 07:14 48.10458 16.47622 2782 ft 231 kts 243°
2026-04-30 07:14 48.09649 16.45399 3260 ft 256 kts 239°
2026-04-30 07:14 48.08624 16.43119 4012 ft 269 kts 235°
2026-04-30 07:15 48.07502 16.40848 4974 ft 274 kts 234°
2026-04-30 07:15 48.06359 16.38596 5907 ft 277 kts 234°
2026-04-30 07:15 48.05181 16.36286 6833 ft 282 kts 234°
2026-04-30 07:15 48.04093 16.33830 7668 ft 286 kts 245°
2026-04-30 07:16 48.03447 16.31009 8498 ft 288 kts 262°
2026-04-30 07:16 48.03324 16.28025 9320 ft 290 kts 275°
2026-04-30 07:16 48.03397 16.24987 10164 ft 295 kts 275°
2026-04-30 07:16 48.03468 16.21815 10531 ft 317 kts 275°